Orbital Elements
Epoch 2022 Apr. 11.0 TT = JDT 2459680.5
T 2022 Apr. 7.34890 TT MPCW
q 2.6800934 (2000.0) P Q
n 0.13299139 Peri. 22.32322 -0.56974942 +0.81979991
a 3.8011968 Node 213.02472 -0.76906316 -0.55655773
e 0.2949343 Incl. 6.06308 -0.28970237 -0.13480205
P 7.41
From 88 observations 1992 Mar. 30-1999 June 9, mean residual 0".8.
|